| time (UTC) | temp F | wind direction | speed MPH | gust MPH | rain 1hr in | rain 24hr in | rain mn in | humidity % | barometer mb |
| 20260906083013 | 61 | 274 | 0.0 | 3.0 | 0.00 | 0.00 | 0.00 | 61 | 1008.2 |
| 20260906081513 | 61 | 256 | 0.0 | 1.0 | 0.00 | 0.00 | 0.00 | 60 | 1007.8 |
| 20260906080010 | 62 | 257 | 0.0 | 0.0 | 0.00 | 0.00 | 0.00 | 59 | 1008.0 |
| 20260906074550 | 62 | 261 | 0.0 | 2.0 | 0.00 | 0.00 | 0.00 | 57 | 1008.0 |
| 20260906073046 | 64 | 252 | 0.0 | 0.0 | 0.00 | 0.00 | 0.00 | 55 | 1008.1 |
| 20260906071525 | 64 | 261 | 0.0 | 3.0 | 0.00 | 0.00 | 0.00 | 53 | 1007.9 |
| 20260906070024 | 65 | 227 | 0.0 | 5.0 | 0.00 | 0.00 | 0.00 | 53 | 1007.7 |
| 20260906064517 | 64 | 253 | 0.0 | 3.0 | 0.00 | 0.00 | 0.00 | 53 | 1007.7 |
| 20260906063012 | 65 | 259 | 0.0 | 0.0 | 0.00 | 0.00 | 0.00 | 52 | 1007.5 |
| 20260906061520 | 66 | 261 | 0.0 | 0.0 | 0.00 | 0.00 | 0.00 | 51 | 1007.5 |
| 20260906060006 | 67 | 261 | 0.0 | 0.0 | 0.00 | 0.00 | 0.00 | 49 | 1007.5 |
| 20260906054508 | 68 | 269 | 0.0 | 1.0 | 0.00 | 0.00 | 0.00 | 46 | 1007.7 |
| 20260906053102 | 69 | 270 | 0.0 | 1.0 | 0.00 | 0.00 | 0.00 | 45 | 1007.6 |
| 20260906051605 | 69 | 263 | 0.0 | 5.0 | 0.00 | 0.00 | 0.00 | 44 | 1007.5 |
| 20260906050056 | 70 | 258 | 0.0 | 0.0 | 0.00 | 0.00 | 0.00 | 44 | 1007.5 |
| 20260906044543 | 70 | 248 | 0.0 | 1.0 | 0.00 | 0.00 | 0.00 | 44 | 1007.4 |
| 20260906043040 | 71 | 263 | 0.0 | 3.0 | 0.00 | 0.00 | 0.00 | 42 | 1007.4 |
| 20260906041538 | 71 | 273 | 0.0 | 2.0 | 0.00 | 0.00 | 0.00 | 42 | 1007.2 |
| 20260906040037 | 71 | 257 | 0.0 | 5.0 | 0.00 | 0.00 | 0.00 | 41 | 1007.1 |
| 20260906034535 | 72 | 257 | 0.0 | 4.0 | 0.00 | 0.00 | 0.00 | 41 | 1007.1 |
| 20260906033033 | 73 | 275 | 0.0 | 1.0 | 0.00 | 0.00 | 0.00 | 39 | 1006.9 |
| 20260906031528 | 73 | 269 | 0.0 | 3.0 | 0.00 | 0.00 | 0.00 | 39 | 1006.8 |
| 20260906030028 | 73 | 342 | 0.0 | 0.0 | 0.00 | 0.00 | 0.00 | 39 | 1006.7 |
| 20260906024509 | 74 | 350 | 0.0 | 0.0 | 0.00 | 0.00 | 0.00 | 39 | 1006.5 |
| 20260906023004 | 76 | 314 | 0.0 | 0.0 | 0.00 | 0.00 | 0.00 | 37 | 1006.3 |
| 20260906021546 | 77 | 316 | 0.0 | 0.0 | 0.00 | 0.00 | 0.00 | 34 | 1006.2 |
| 20260906020040 | 77 | 313 | 0.0 | 0.0 | 0.00 | 0.00 | 0.00 | 33 | 1006.1 |
| 20260906014527 | 78 | 56 | 0.0 | 1.0 | 0.00 | 0.00 | 0.00 | 33 | 1005.9 |
| 20260906013034 | 79 | 329 | 0.0 | 5.0 | 0.00 | 0.00 | 0.00 | 32 | 1005.9 |
| 20260906011519 | 80 | 350 | 0.0 | 4.0 | 0.00 | 0.00 | 0.00 | 31 | 1005.9 |
| 20260906010018 | 80 | 34 | 1.0 | 9.0 | 0.00 | 0.00 | 0.00 | 30 | 1005.9 |
| 20260906004515 | 81 | 26 | 0.0 | 15.0 | 0.00 | 0.00 | 0.00 | 30 | 1005.7 |
| 20260906003019 | 83 | 56 | 0.0 | 11.0 | 0.00 | 0.00 | 0.00 | 28 | 1005.6 |
| 20260906001512 | 84 | 21 | 0.0 | 8.0 | 0.00 | 0.00 | 0.00 | 26 | 1005.5 |
| 20260906000007 | 85 | 50 | 0.0 | 4.0 | 0.00 | 0.00 | 0.00 | 26 | 1005.6 |
| 20260905234554 | 86 | 70 | 0.0 | 4.0 | 0.00 | 0.00 | 0.00 | 25 | 1005.7 |
| 20260905233053 | 86 | 351 | 0.0 | 5.0 | 0.00 | 0.00 | 0.00 | 25 | 1005.7 |
| 20260905231550 | 85 | 90 | 0.0 | 1.0 | 0.00 | 0.00 | 0.00 | 25 | 1005.7 |
| 20260905230049 | 85 | 21 | 0.0 | 0.0 | 0.00 | 0.00 | 0.00 | 23 | 1005.8 |
| 20260905224548 | 85 | 85 | 0.0 | 3.0 | 0.00 | 0.00 | 0.00 | 25 | 1005.9 |
| 20260905223046 | 85 | 32 | 0.0 | 0.0 | 0.00 | 0.00 | 0.00 | 25 | 1005.9 |
| 20260905221544 | 85 | 75 | 0.0 | 3.0 | 0.00 | 0.00 | 0.00 | 25 | 1006.1 |
| 20260905220043 | 85 | 108 | 0.0 | 1.0 | 0.00 | 0.00 | 0.00 | 25 | 1006.2 |
| 20260905214533 | 85 | 92 | 0.0 | 6.0 | 0.00 | 0.00 | 0.00 | 25 | 1006.3 |
| 20260905213028 | 84 | 84 | 0.0 | 3.0 | 0.00 | 0.00 | 0.00 | 26 | 1006.5 |
| 20260905211525 | 84 | 202 | 0.0 | 5.0 | 0.00 | 0.00 | 0.00 | 25 | 1006.5 |
| 20260905210025 | 84 | 76 | 0.0 | 1.0 | 0.00 | 0.00 | 0.00 | 26 | 1006.6 |
| 20260905204524 | 83 | 113 | 0.0 | 4.0 | 0.00 | 0.00 | 0.00 | 26 | 1006.7 |
| 20260905203024 | 83 | 103 | 0.0 | 6.0 | 0.00 | 0.00 | 0.00 | 25 | 1006.9 |
| 20260905201523 | 82 | 108 | 0.0 | 5.0 | 0.00 | 0.00 | 0.00 | 26 | 1007.0 |
| 20260905200031 | 83 | 56 | 0.0 | 2.0 | 0.00 | 0.00 | 0.00 | 26 | 1007.1 |
| 20260905194510 | 82 | 28 | 0.0 | 3.0 | 0.00 | 0.00 | 0.00 | 26 | 1007.3 |
| 20260905193010 | 81 | 111 | 0.0 | 0.0 | 0.00 | 0.00 | 0.00 | 27 | 1007.3 |
| 20260905191509 | 81 | 35 | 0.0 | 0.0 | 0.00 | 0.00 | 0.00 | 28 | 1007.5 |
| 20260905190009 | 81 | 44 | 0.0 | 3.0 | 0.00 | 0.00 | 0.00 | 27 | 1007.7 |
| 20260905184519 | 80 | 77 | 0.0 | 4.0 | 0.00 | 0.00 | 0.00 | 27 | 1008.0 |
| 20260905183008 | 80 | 101 | 0.0 | 3.0 | 0.00 | 0.00 | 0.00 | 29 | 1008.1 |
| 20260905181507 | 79 | 60 | 0.0 | 4.0 | 0.00 | 0.00 | 0.00 | 29 | 1008.3 |
| 20260905180009 | 79 | 58 | 0.0 | 4.0 | 0.00 | 0.00 | 0.00 | 29 | 1008.6 |
| 20260905174606 | 78 | 305 | 0.0 | 2.0 | 0.00 | 0.00 | 0.00 | 29 | 1008.7 |
| 20260905173049 | 77 | 101 | 0.0 | 5.0 | 0.00 | 0.00 | 0.00 | 32 | 1008.7 |
| 20260905171552 | 76 | 349 | 0.0 | 0.0 | 0.00 | 0.00 | 0.00 | 32 | 1008.9 |
| 20260905170036 | 75 | 124 | 0.0 | 0.0 | 0.00 | 0.00 | 0.00 | 35 | 1008.9 |
| 20260905164536 | 73 | 103 | 0.0 | 0.0 | 0.00 | 0.00 | 0.00 | 35 | 1008.9 |
| 20260905163039 | 72 | 98 | 0.0 | 0.0 | 0.00 | 0.00 | 0.00 | 35 | 1009.0 |
| 20260905161535 | 72 | 91 | 0.0 | 2.0 | 0.00 | 0.00 | 0.00 | 35 | 1009.0 |
| 20260905160036 | 72 | 105 | 0.0 | 0.0 | 0.00 | 0.00 | 0.00 | 34 | 1008.9 |
| 20260905154535 | 70 | 348 | 0.0 | 3.0 | 0.00 | 0.00 | 0.00 | 36 | 1009.0 |
| 20260905153047 | 68 | 329 | 0.0 | 5.0 | 0.00 | 0.00 | 0.00 | 40 | 1008.8 |
| 20260905151534 | 66 | 299 | 0.0 | 3.0 | 0.00 | 0.00 | 0.00 | 43 | 1009.0 |
| 20260905150016 | 64 | 279 | 0.0 | 0.0 | 0.00 | 0.00 | 0.00 | 48 | 1009.0 |
| 20260905144523 | 62 | 273 | 0.0 | 4.0 | 0.00 | 0.00 | 0.00 | 53 | 1008.9 |
| 20260905143004 | 60 | 285 | 0.0 | 3.0 | 0.00 | 0.00 | 0.00 | 60 | 1008.8 |
| 20260905141501 | 58 | 238 | 0.0 | 6.0 | 0.00 | 0.00 | 0.00 | 60 | 1008.9 |
| 20260905140107 | 56 | 262 | 0.0 | 0.0 | 0.00 | 0.00 | 0.00 | 62 | 1008.4 |
| 20260905134559 | 55 | 255 | 0.0 | 8.0 | 0.00 | 0.00 | 0.00 | 63 | 1008.4 |
| 20260905133058 | 55 | 281 | 0.0 | 3.0 | 0.00 | 0.00 | 0.00 | 63 | 1008.3 |
| 20260905131613 | 55 | 297 | 0.0 | 0.0 | 0.00 | 0.00 | 0.00 | 64 | 1007.9 |
| 20260905130054 | 54 | 291 | 0.0 | 0.0 | 0.00 | 0.00 | 0.00 | 63 | 1007.8 |
| 20260905124554 | 54 | 292 | 0.0 | 0.0 | 0.00 | 0.00 | 0.00 | 65 | 1007.4 |
| 20260905123036 | 54 | 292 | 0.0 | 0.0 | 0.00 | 0.00 | 0.00 | 65 | 1007.6 |
| 20260905121534 | 54 | 348 | 1.0 | 8.0 | 0.00 | 0.00 | 0.00 | 65 | 1007.8 |
| 20260905120022 | 54 | 261 | 0.0 | 0.0 | 0.00 | 0.00 | 0.00 | 65 | 1007.5 |
| 20260905114517 | 56 | 279 | 0.0 | 0.0 | 0.00 | 0.00 | 0.00 | 61 | 1007.0 |
| 20260905113014 | 57 | 279 | 0.0 | 0.0 | 0.00 | 0.00 | 0.00 | 58 | 1007.0 |
| 20260905111516 | 57 | 273 | 0.0 | 2.0 | 0.00 | 0.00 | 0.00 | 58 | 1007.0 |
| 20260905110011 | 57 | 275 | 0.0 | 3.0 | 0.00 | 0.00 | 0.00 | 60 | 1006.7 |
| 20260905104507 | 57 | 305 | 0.0 | 2.0 | 0.00 | 0.00 | 0.00 | 57 | 1006.5 |
| 20260905103005 | 59 | 280 | 1.0 | 7.0 | 0.00 | 0.00 | 0.00 | 53 | 1006.4 |
| 20260905101502 | 59 | 311 | 0.0 | 0.0 | 0.00 | 0.00 | 0.00 | 52 | 1005.9 |
| 20260905100057 | 61 | 244 | 0.0 | 4.0 | 0.00 | 0.00 | 0.00 | 48 | 1006.1 |
| 20260905094545 | 62 | 275 | 0.0 | 1.0 | 0.00 | 0.00 | 0.00 | 47 | 1006.1 |
| 20260905093043 | 62 | 277 | 0.0 | 0.0 | 0.00 | 0.00 | 0.00 | 47 | 1005.7 |
| 20260905091544 | 62 | 278 | 0.0 | 3.0 | 0.00 | 0.00 | 0.00 | 47 | 1006.2 |
| 20260905084537 | 65 | 270 | 0.0 | 0.0 | 0.00 | 0.00 | 0.00 | 40 | 1005.7 |